Regional Weather Roundup
Issued by NWS

Home | Current Version | Previous Version | Text Only | Print | Product List | Glossary Off
Versions: 1 2 3 4 5 6 7 8 9 10 11 12 13 14 15 16 17 18 19 20 21 22 23 24 25 26 27 28 29 30 31 32 33 34 35 36 37 38 39 40 41 42 43 44 45 46 47 48 49 50

000
ASUS44 KMEG 300810
RWRTN
TENNESSEE HOURLY STATE WEATHER ROUNDUP
NATIONAL WEATHER SERVICE MEMPHIS TN
300 AM CDT WED JUL 30 2014

TNZ002-004-019-021-049-052-054-088>092-300900-
WEST TENNESSEE

CITY           SKY/WX    TMP DP  RH WIND       PRES   REMARKS
MEMPHIS INTL   PTCLDY    65  57  75 CALM      30.09S
NWS MEMPHIS      N/A     60 N/A N/A MISG        N/A
JACKSON        CLEAR     55  54  94 CALM      30.10S FOG
DYERSBURG      CLEAR     57  48  72 CALM      30.10F
UNION CITY     CLEAR     57  55  94 CALM      30.09S
PARIS          CLEAR     51  49  93 CALM      30.10F
LEXINGTON      CLEAR     55  54  94 CALM      30.09S
SAVANNAH       CLEAR     54  54 100 CALM      30.10S
$$

TNZ008-025-027-028-033-062-065-066-300900-
NORTH MIDDLE TENNESSEE

CITY           SKY/WX    TMP DP  RH WIND       PRES   REMARKS
NASHVILLE      CLEAR     61  57  87 CALM      30.10S
DICKSON        CLEAR     55  52  88 CALM      30.11S
PORTLAND       CLEAR     55  54  94 CALM      30.10S
CLARKSVILLE    CLEAR     57  53  86 CALM      30.10S
LEBANON        CLEAR     57  55  93 CALM      30.09S
SMYRNA         CLEAR     57  56  97 CALM      30.11S
MURFREESBORO   CLEAR     60  57  89 CALM      30.10S
COOKEVILLE     CLEAR     54  54 100 CALM      30.10S
CROSSVILLE     CLEAR     53  51  93 CALM      30.13S
$$

TNZ061-075-076-078-094-096-097-300900-
SOUTH MIDDLE TENNESSEE

CITY           SKY/WX    TMP DP  RH WIND       PRES   REMARKS
LEWISBURG      CLEAR     55  52  90 CALM      30.10S
FAYETTEVILLE   CLEAR     55  54  94 N10G26    30.10S
TULLAHOMA      CLEAR     55  52  88 CALM      30.11S
WINCHESTER     CLEAR     54  54 100 CALM      30.11S
MCMINNVILLE    CLEAR     55  55 100 CALM      30.11S
COLUMBIA       CLEAR     55  55 100 CALM      30.09S
SHELBYVILLE    CLEAR     55  55 100 CALM      30.11S
$$

TNZ017-018-042-046-047-300900-
NORTHEAST TENNESSEE

CITY           SKY/WX    TMP DP  RH WIND       PRES   REMARKS
TRI CITIES     CLEAR     52  49  89 CALM      30.11S
ELIZABETHTON   SUNNY     48  48 100 CALM        N/A
$$

TNZ012-013-036-069-073-074-300900-
CENTRAL EAST TENNESSEE

CITY           SKY/WX    TMP DP  RH WIND       PRES   REMARKS
KNOXVILLE      CLEAR     56  55  97 NE3       30.09S
OAK RIDGE      CLEAR     56  54  93 CALM      30.12S
GATLINBURG     SUNNY     54  54 100 CALM      30.10S
MORRISTOWN     SUNNY     54  54 100 CALM      30.12R
$$

TNZ083-085-099-300900-
SOUTHEAST TENNESSEE

CITY           SKY/WX    TMP DP  RH WIND       PRES   REMARKS
CHATTANOOGA    CLEAR     62  54  74 CALM      30.08S
$$

SKY/WX REPORTED AS FAIR MEANS FEW OR NO CLOUDS BELOW
12 THOUSAND FEET.




USA.gov is the U.S. government's official web portal to all federal, state and local government web resources and services.